Flag for Germany Weather past 2 weeks in Herzogenrath, North Rhine-Westphalia, Germany

Now
52 °F

Drizzle. Partly sunny.


Feels Like: 48 °F
Forecast: 42 / 53 °F
Wind: 12 mph from West

Location: Geilenkirchen Airport

Current Time: Dec 18, 2014 at 10:19:56 AM

Latest Report: Dec 18, 2014 at 9:50 AM


Visibility: N/A

Pressure: 29.86 "Hg

Humidity: 100%

Dew point: 52 °F

Location of HerzogenrathLocation

Historic Weather in Herzogenrath — Graph

°F

Herzogenrath temperature yesterday

Maximum temperature yesterday: 50 °F (at 5:50 PM)
Minimum temperature yesterday: 39 °F (at 12:50 AM)
Average temperature yesterday: 45 °F

Past Weeks' High & Low Weather Summary

 TemperatureHumidityPressure
High52 °F (Dec 18, 1:50 AM)100% (Dec 3, 10:50 AM)30.39 "Hg (Dec 3, 10:50 AM)
Low30 °F (Dec 3, 10:50 AM)66% (Dec 10, 2:50 AM)29.42 "Hg (Dec 12, 2:50 PM)
Average41 °F87%29.96 "Hg
* Reported Dec 3 8:50 AM — Dec 18 8:50 AM, Herzogenrath, Weather by CustomWeather, © 2014

Note: Actual official high and low records may vary slightly from our data, if they occured in-between our weather recording intervals... More about our weather records

Advertising

Herzogenrath weather history for previous 24 hours

 ConditionsComfort  
Time TempWeatherWind HumidityBarometerVisibility
8:50 AM
Dec 18
52 °FDrizzle. Fog.12 mph100%29.86 "Hg2 mi
7:50 AM52 °FPassing clouds.10 mph100%29.83 "Hg4 mi
6:50 AM52 °FPassing clouds.9 mph94%29.83 "Hg4 mi
5:50 AM52 °FDrizzle. Fog.10 mph94%29.83 "Hg2 mi
4:50 AM52 °FDrizzle. Fog.9 mph94%29.83 "Hg3 mi
3:50 AM52 °FMostly cloudy.8 mph94%29.83 "HgN/A
2:50 AM52 °FPassing clouds.8 mph94%29.83 "Hg4 mi
1:50 AM52 °FOvercast.8 mph94%29.86 "Hg4 mi
12:50 AM50 °FDrizzle. Fog.8 mph100%29.86 "Hg2 mi
11:50 PM
Dec 17
50 °FDrizzle. Fog.8 mph100%29.83 "Hg3 mi
10:50 PM50 °FFog.9 mph100%29.83 "Hg3 mi
9:50 PM50 °FDrizzle. Fog.12 mph100%29.80 "Hg2 mi
8:50 PM50 °FDrizzle. Fog.12 mph100%29.80 "Hg3 mi
7:50 PM50 °FDrizzle. Fog.12 mph100%29.77 "Hg1 mi
6:50 PM50 °FDrizzle. Fog.9 mph100%29.74 "Hg2 mi
5:50 PM50 °FDrizzle. Fog.9 mph94%29.74 "Hg2 mi
4:50 PM48 °FDrizzle. Fog.10 mph100%29.71 "Hg2 mi
3:50 PM48 °FDrizzle. Fog.10 mph94%29.68 "Hg2 mi
2:50 PM46 °FDrizzle. Fog.13 mph100%29.65 "Hg1 mi
1:50 PM45 °FDrizzle. Fog.14 mph100%29.65 "Hg2 mi
12:50 PM45 °FDrizzle. Fog.14 mph93%29.62 "Hg2 mi
11:50 AM45 °FDrizzle. Fog.16 mph87%29.62 "Hg3 mi
10:50 AM43 °FDrizzle. Fog.16 mph93%29.65 "Hg2 mi
Weather by CustomWeather, © 2014

See weather overviewHow to use our weather pages